Time,TemperatureF,DewpointF,PressureIn,WindDirection,WindDirectionDegrees,WindSpeedMPH,WindSpeedGustMPH,Humidity,HourlyPrecipIn,Conditions,Clouds,dailyrainin,SolarRadiationWatts/m^2,SoftwareType,DateUTC
2013-01-07 10:27:00,43.2,31.8,30.26,West,276,6.0,14.0,64,0.00,,,0.00,394,Wunderground v.1.15,2013-01-07 15:27:00,
2013-01-07 10:38:00,43.3,31.5,30.27,West,273,8.0,13.0,63,0.00,,,0.00,406,Wunderground v.1.15,2013-01-07 15:38:00,
2013-01-07 10:43:00,43.2,31.4,30.27,NW,320,8.0,13.0,63,0.00,,,0.00,413,Wunderground v.1.15,2013-01-07 15:43:00,
2013-01-07 10:48:00,43.3,31.5,30.27,West,260,7.0,13.0,63,0.00,,,0.00,418,Wunderground v.1.15,2013-01-07 15:48:00,
2013-01-07 10:52:00,43.3,31.5,30.27,WNW,291,7.0,16.0,63,0.00,,,0.00,425,Wunderground v.1.15,2013-01-07 15:52:00,
2013-01-07 11:02:00,43.1,31.0,30.27,WNW,282,9.0,19.0,62,0.00,,,0.00,432,Wunderground v.1.15,2013-01-07 16:02:00,
2013-01-07 11:08:00,43.3,31.1,30.27,West,275,9.0,16.0,62,0.00,,,0.00,438,Wunderground v.1.15,2013-01-07 16:08:00,
2013-01-07 11:17:00,43.3,31.1,30.26,NNW,345,9.0,9.0,62,0.00,,,0.00,445,Wunderground v.1.15,2013-01-07 16:17:00,
2013-01-07 11:28:00,43.2,31.1,30.27,WNW,300,8.0,19.0,62,0.00,,,0.00,446,Wunderground v.1.15,2013-01-07 16:28:00,
2013-01-07 11:38:00,43.4,30.4,30.27,WNW,286,8.0,8.0,60,0.00,,,0.00,462,Wunderground v.1.15,2013-01-07 16:38:00,
2013-01-07 11:47:00,43.4,30.0,30.26,NW,321,9.0,9.0,59,0.00,,,0.00,455,Wunderground v.1.15,2013-01-07 16:47:00,
2013-01-07 11:57:00,43.8,29.5,30.27,NW,318,8.0,18.0,57,0.00,,,0.00,462,Wunderground v.1.15,2013-01-07 16:57:00,
2013-01-07 12:03:00,43.8,29.1,30.27,NW,319,7.0,18.0,56,0.00,,,0.00,464,Wunderground v.1.15,2013-01-07 17:03:00,
2013-01-07 12:12:00,43.8,28.7,30.27,WNW,289,9.0,18.0,55,0.00,,,0.00,457,Wunderground v.1.15,2013-01-07 17:12:00,
2013-01-07 12:22:00,43.6,28.0,30.27,WNW,284,9.0,18.0,54,0.00,,,0.00,457,Wunderground v.1.15,2013-01-07 17:22:00,
2013-01-07 12:28:00,43.9,27.9,30.28,NW,308,9.0,9.0,53,0.00,,,0.00,454,Wunderground v.1.15,2013-01-07 17:28:00,
2013-01-07 12:38:00,44.0,28.0,30.28,NW,305,7.0,7.0,53,0.00,,,0.00,448,Wunderground v.1.15,2013-01-07 17:38:00,
2013-01-07 12:43:00,44.1,27.6,30.28,WNW,298,8.0,8.0,52,0.00,,,0.00,443,Wunderground v.1.15,2013-01-07 17:43:00,
2013-01-07 12:52:00,43.8,26.8,30.28,NW,311,9.0,19.0,51,0.00,,,0.00,439,Wunderground v.1.15,2013-01-07 17:52:00,
2013-01-07 12:58:00,43.8,27.3,30.28,West,273,8.0,19.0,52,0.00,,,0.00,431,Wunderground v.1.15,2013-01-07 17:58:00,
2013-01-07 13:08:00,43.9,26.9,30.28,West,275,7.0,19.0,51,0.00,,,0.00,424,Wunderground v.1.15,2013-01-07 18:08:00,
2013-01-07 13:13:00,44.4,27.9,30.29,WNW,282,7.0,19.0,52,0.00,,,0.00,418,Wunderground v.1.15,2013-01-07 18:13:00,
2013-01-07 13:18:00,44.1,26.1,30.29,NW,310,7.0,19.0,49,0.00,,,0.00,411,Wunderground v.1.15,2013-01-07 18:18:00,
2013-01-07 13:38:00,44.4,26.4,30.30,NW,315,6.0,16.0,49,0.00,,,0.00,380,Wunderground v.1.15,2013-01-07 18:38:00,
2013-01-07 13:47:00,44.0,25.5,30.30,WNW,287,7.0,7.0,48,0.00,,,0.00,367,Wunderground v.1.15,2013-01-07 18:47:00,
2013-01-07 13:58:00,43.7,25.8,30.31,WNW,286,8.0,8.0,49,0.00,,,0.00,352,Wunderground v.1.15,2013-01-07 18:58:00,
2013-01-07 14:08:00,43.4,24.0,30.31,WNW,292,7.0,7.0,46,0.00,,,0.00,330,Wunderground v.1.15,2013-01-07 19:08:00,
2013-01-07 14:17:00,43.4,24.0,30.31,West,265,7.0,7.0,46,0.00,,,0.00,313,Wunderground v.1.15,2013-01-07 19:17:00,
2013-01-07 14:27:00,43.5,24.6,30.31,North,355,6.0,6.0,47,0.00,,,0.00,295,Wunderground v.1.15,2013-01-07 19:27:00,
2013-01-07 14:33:00,43.3,24.9,30.32,WNW,294,5.0,5.0,48,0.00,,,0.00,281,Wunderground v.1.15,2013-01-07 19:33:00,
2013-01-07 14:43:00,43.0,24.1,30.32,West,268,6.0,15.0,47,0.00,,,0.00,260,Wunderground v.1.15,2013-01-07 19:43:00,
2013-01-07 14:52:00,42.9,24.5,30.32,West,280,6.0,6.0,48,0.00,,,0.00,232,Wunderground v.1.15,2013-01-07 19:52:00,
2013-01-07 15:03:00,42.7,24.8,30.33,NW,310,6.0,14.0,49,0.00,,,0.00,202,Wunderground v.1.15,2013-01-07 20:03:00,
2013-01-07 15:13:00,42.7,24.4,30.33,WSW,253,5.0,14.0,48,0.00,,,0.00,171,Wunderground v.1.15,2013-01-07 20:13:00,
2013-01-07 15:22:00,42.5,24.7,30.34,NW,321,5.0,14.0,49,0.00,,,0.00,141,Wunderground v.1.15,2013-01-07 20:22:00,
2013-01-07 15:28:00,42.4,24.6,30.34,WNW,287,5.0,12.0,49,0.00,,,0.00,127,Wunderground v.1.15,2013-01-07 20:28:00,
2013-01-07 15:33:00,42.4,24.6,30.34,WNW,284,5.0,12.0,49,0.00,,,0.00,113,Wunderground v.1.15,2013-01-07 20:33:00,
2013-01-07 15:43:00,42.1,24.8,30.34,NNW,328,4.0,12.0,50,0.00,,,0.00,91,Wunderground v.1.15,2013-01-07 20:43:00,
2013-01-07 15:52:00,41.9,25.1,30.35,NW,325,3.0,9.0,51,0.00,,,0.00,58,Wunderground v.1.15,2013-01-07 20:52:00,
2013-01-07 16:03:00,41.4,25.5,30.35,NE,49,4.0,9.0,53,0.00,,,0.00,37,Wunderground v.1.15,2013-01-07 21:03:00,
2013-01-07 16:12:00,41.0,25.6,30.35,WNW,287,3.0,9.0,54,0.00,,,0.00,23,Wunderground v.1.15,2013-01-07 21:12:00,
2013-01-07 16:22:00,40.7,25.8,30.36,NW,315,2.0,9.0,55,0.00,,,0.00,14,Wunderground v.1.15,2013-01-07 21:22:00,
2013-01-07 16:33:00,40.1,25.6,30.36,NNW,327,3.0,8.0,56,0.00,,,0.00,9,Wunderground v.1.15,2013-01-07 21:33:00,
2013-01-07 16:48:00,39.2,25.6,30.36,WNW,296,2.0,8.0,58,0.00,,,0.00,0,Wunderground v.1.15,2013-01-07 21:48:00,
2013-01-07 16:57:00,38.5,25.4,30.37,WNW,297,2.0,5.0,59,0.00,,,0.00,0,Wunderground v.1.15,2013-01-07 21:57:00,
2013-01-07 17:08:00,37.9,25.2,30.37,WNW,297,1.0,1.0,60,0.00,,,0.00,0,Wunderground v.1.15,2013-01-07 22:08:00,
2013-01-07 17:17:00,37.5,25.7,30.37,WNW,297,0.0,5.0,62,0.00,,,0.00,0,Wunderground v.1.15,2013-01-07 22:17:00,
2013-01-07 17:23:00,37.3,25.1,30.38,WNW,297,1.0,5.0,61,0.00,,,0.00,0,Wunderground v.1.15,2013-01-07 22:23:00,
2013-01-07 17:33:00,36.0,25.0,30.38,WNW,297,1.0,4.0,64,0.00,,,0.00,0,Wunderground v.1.15,2013-01-07 22:33:00,
2013-01-07 17:42:00,36.2,25.2,30.38,WNW,297,1.0,4.0,64,0.00,,,0.00,0,Wunderground v.1.15,2013-01-07 22:42:00,
2013-01-07 17:48:00,36.1,25.5,30.38,WNW,297,1.0,4.0,65,0.00,,,0.00,0,Wunderground v.1.15,2013-01-07 22:48:00,
2013-01-07 17:57:00,35.6,25.4,30.39,WNW,297,2.0,4.0,66,0.00,,,0.00,0,Wunderground v.1.15,2013-01-07 22:57:00,
2013-01-07 18:03:00,35.5,25.3,30.38,WNW,297,2.0,4.0,66,0.00,,,0.00,0,Wunderground v.1.15,2013-01-07 23:03:00,
2013-01-07 18:13:00,34.6,24.8,30.39,WNW,297,1.0,4.0,67,0.00,,,0.00,0,Wunderground v.1.15,2013-01-07 23:13:00,
2013-01-07 18:22:00,33.6,24.5,30.39,WNW,297,1.0,4.0,69,0.00,,,0.00,0,Wunderground v.1.15,2013-01-07 23:22:00,
2013-01-07 18:28:00,32.5,23.8,30.39,WNW,297,1.0,4.0,70,0.00,,,0.00,0,Wunderground v.1.15,2013-01-07 23:28:00,
2013-01-07 18:38:00,33.3,24.9,30.38,WNW,297,2.0,2.0,71,0.00,,,0.00,0,Wunderground v.1.15,2013-01-07 23:38:00,
2013-01-07 18:47:00,33.2,24.8,30.38,WNW,297,2.0,4.0,71,0.00,,,0.00,0,Wunderground v.1.15,2013-01-07 23:47:00,
2013-01-07 18:53:00,32.5,24.1,30.38,WNW,297,2.0,4.0,71,0.00,,,0.00,0,Wunderground v.1.15,2013-01-07 23:53:00,
2013-01-07 19:03:00,32.8,25.1,30.39,WNW,297,1.0,3.0,73,0.00,,,0.00,0,Wunderground v.1.15,2013-01-08 00:03:00,
2013-01-07 19:12:00,32.2,24.5,30.39,WNW,297,0.0,3.0,73,0.00,,,0.00,0,Wunderground v.1.15,2013-01-08 00:12:00,
2013-01-07 19:18:00,32.3,24.6,30.38,WNW,297,0.0,3.0,73,0.00,,,0.00,0,Wunderground v.1.15,2013-01-08 00:18:00,
2013-01-07 19:28:00,32.4,25.0,30.38,WNW,297,1.0,3.0,74,0.00,,,0.00,0,Wunderground v.1.15,2013-01-08 00:28:00,
2013-01-07 19:37:00,31.5,24.5,30.38,WNW,297,1.0,4.0,75,0.00,,,0.00,0,Wunderground v.1.15,2013-01-08 00:37:00,
2013-01-07 19:43:00,32.2,24.8,30.38,WNW,297,2.0,4.0,74,0.00,,,0.00,0,Wunderground v.1.15,2013-01-08 00:43:00,
2013-01-07 19:52:00,30.8,23.5,30.38,WNW,297,2.0,5.0,74,0.00,,,0.00,0,Wunderground v.1.15,2013-01-08 00:52:00,
2013-01-07 20:02:00,31.6,24.6,30.38,WNW,297,2.0,5.0,75,0.00,,,0.00,0,Wunderground v.1.15,2013-01-08 01:02:00,
2013-01-07 20:08:00,30.9,23.9,30.38,WNW,297,2.0,2.0,75,0.00,,,0.00,0,Wunderground v.1.15,2013-01-08 01:08:00,
2013-01-07 20:18:00,30.1,23.8,30.38,WNW,297,0.0,5.0,77,0.00,,,0.00,0,Wunderground v.1.15,2013-01-08 01:18:00,
2013-01-07 20:28:00,30.3,24.0,30.38,WNW,297,0.0,3.0,77,0.00,,,0.00,0,Wunderground v.1.15,2013-01-08 01:28:00,
2013-01-07 20:37:00,29.6,23.9,30.39,WNW,297,0.0,3.0,79,0.00,,,0.00,0,Wunderground v.1.15,2013-01-08 01:37:00,
2013-01-07 20:43:00,29.7,24.6,30.39,WNW,297,0.0,3.0,81,0.00,,,0.00,0,Wunderground v.1.15,2013-01-08 01:43:00,
2013-01-07 20:53:00,29.8,24.1,30.39,WNW,297,1.0,3.0,79,0.00,,,0.00,0,Wunderground v.1.15,2013-01-08 01:53:00,
2013-01-07 21:02:00,30.1,24.4,30.38,WNW,297,0.0,2.0,79,0.00,,,0.00,0,Wunderground v.1.15,2013-01-08 02:02:00,
2013-01-07 21:07:00,30.2,24.5,30.39,WNW,297,1.0,1.0,79,0.00,,,0.00,0,Wunderground v.1.15,2013-01-08 02:07:00,
2013-01-07 21:17:00,30.0,24.6,30.39,WNW,297,0.0,2.0,80,0.00,,,0.00,0,Wunderground v.1.15,2013-01-08 02:17:00,
2013-01-07 21:23:00,30.4,24.4,30.38,WNW,297,0.0,2.0,78,0.00,,,0.00,0,Wunderground v.1.15,2013-01-08 02:23:00,
2013-01-07 21:33:00,29.4,23.7,30.38,WNW,297,0.0,2.0,79,0.00,,,0.00,0,Wunderground v.1.15,2013-01-08 02:33:00,
2013-01-07 21:43:00,29.4,24.3,30.38,WNW,297,0.0,2.0,81,0.00,,,0.00,0,Wunderground v.1.15,2013-01-08 02:43:00,
2013-01-07 21:53:00,28.7,23.9,30.38,WNW,297,0.0,2.0,82,0.00,,,0.00,0,Wunderground v.1.15,2013-01-08 02:53:00,
2013-01-07 22:02:00,29.4,24.6,30.38,WNW,297,0.0,1.0,82,0.00,,,0.00,0,Wunderground v.1.15,2013-01-08 03:02:00,
2013-01-07 22:22:00,30.8,26.0,30.38,WNW,297,0.0,1.0,82,0.00,,,0.00,0,Wunderground v.1.15,2013-01-08 03:22:00,
2013-01-07 22:28:00,30.2,25.1,30.38,WNW,297,0.0,1.0,81,0.00,,,0.00,0,Wunderground v.1.15,2013-01-08 03:28:00,
2013-01-07 22:37:00,31.5,26.3,30.38,WNW,297,0.0,1.0,81,0.00,,,0.00,0,Wunderground v.1.15,2013-01-08 03:37:00,
2013-01-07 22:48:00,32.3,26.2,30.38,WNW,297,1.0,1.0,78,0.00,,,0.00,0,Wunderground v.1.15,2013-01-08 03:48:00,
2013-01-07 22:58:00,33.9,26.8,30.38,WNW,297,1.0,2.0,75,0.00,,,0.00,0,Wunderground v.1.15,2013-01-08 03:58:00,
2013-01-07 23:07:00,35.1,27.3,30.38,WNW,297,2.0,2.0,73,0.00,,,0.00,0,Wunderground v.1.15,2013-01-08 04:07:00,
2013-01-07 23:13:00,35.4,27.3,30.38,WNW,294,2.0,2.0,72,0.00,,,0.00,0,Wunderground v.1.15,2013-01-08 04:13:00,
2013-01-07 23:23:00,36.1,27.6,30.38,WNW,294,1.0,4.0,71,0.00,,,0.00,0,Wunderground v.1.15,2013-01-08 04:23:00,
2013-01-07 23:32:00,36.0,27.5,30.38,WNW,294,1.0,4.0,71,0.00,,,0.00,0,Wunderground v.1.15,2013-01-08 04:32:00,
2013-01-07 23:43:00,36.2,27.7,30.37,SSW,202,1.0,4.0,71,0.00,,,0.00,0,Wunderground v.1.15,2013-01-08 04:43:00,
2013-01-07 23:53:00,36.8,28.3,30.37,South,178,3.0,5.0,71,0.00,,,0.00,0,Wunderground v.1.15,2013-01-08 04:53:00,